EW5069 Weather Reports


time (UTC)temp
C
wind
direction
speed
KPH
gust
KPH
rain 1hr
cm
rain 24hr
cm
rain mn
cm
humidity
%
barometer
mb
20260901231528 31 0.0 6.4 0.00 0.00 0.00 72 1014.1
20260901230030 32 0.0 9.7 0.00 0.00 0.00 71 1014.0
20260901224537 32 0.0 9.7 0.00 0.00 0.00 69 1014.1
20260901223042 32 0.0 9.7 0.00 0.00 0.00 68 1014.0
20260901221523 32 0.0 16.1 0.00 0.00 0.00 68 1013.9
20260901220027 32 0.0 12.9 0.00 0.00 0.00 66 1014.0
20260901214522 32 0.0 17.7 0.00 0.00 0.00 66 1013.9
20260901213024 33 0.0 12.9 0.00 0.00 0.00 66 1014.0
20260901211525 32 0.0 16.1 0.00 0.00 0.00 63 1014.0
20260901210032 32 360 0.0 12.9 0.00 0.00 0.00 65 1014.0
20260901204523 32 0.0 17.7 0.00 0.00 0.00 64 1014.1
20260901203018 33 0.0 17.7 0.00 0.00 0.00 64 1014.1
20260901201513 32 0.0 22.5 0.00 0.00 0.00 64 1014.1
20260901200033 33 0.0 20.9 0.00 0.00 0.00 63 1014.1
20260901194509 32 0.0 20.9 0.00 0.00 0.00 64 1014.1
20260901193008 33 0.0 17.7 0.00 0.00 0.00 64 1014.3
20260901191504 32 0.0 19.3 0.00 0.00 0.00 65 1014.4
20260901190126 32 0.0 19.3 0.00 0.00 0.00 65 1014.4
20260901184612 32 0.0 17.7 0.00 0.00 0.00 64 1014.5
20260901183055 32 0.0 17.7 0.00 0.00 0.00 65 1014.4
20260901181555 32 0.0 17.7 0.00 0.00 0.00 66 1014.4
20260901180053 32 0.0 22.5 0.00 0.00 0.00 66 1014.4
20260901174600 31 0.0 17.7 0.00 0.00 0.00 68 1014.6
20260901173051 31 0.0 16.1 0.00 0.00 0.00 69 1014.8
20260901171551 31 0.0 19.3 0.00 0.00 0.00 64 1014.8
20260901170136 31 0.0 17.7 0.00 0.00 0.00 65 1014.9
20260901164544 31 360 0.0 17.7 0.00 0.00 0.00 67 1015.0
20260901163041 31 0.0 19.3 0.00 0.00 0.00 67 1015.1
20260901161537 30 0.0 22.5 0.00 0.00 0.00 68 1015.1
20260901160037 30 0.0 22.5 0.00 0.00 0.00 67 1015.3
20260901154530 30 0.0 20.9 0.00 0.00 0.00 69 1015.3
20260901153027 29 0.0 22.5 0.00 0.00 0.00 71 1015.3
20260901151526 29 0.0 16.1 0.00 0.00 0.00 71 1015.3
20260901150024 28 0.0 19.3 0.00 0.00 0.00 72 1015.4
20260901144521 28 0.0 19.3 0.00 0.00 0.00 72 1015.5
20260901143018 27 0.0 17.7 0.00 0.00 0.00 75 1015.5
20260901141514 27 0.0 19.3 0.00 0.00 0.00 76 1015.4
20260901140010 27 0.0 20.9 0.00 0.00 0.00 78 1015.3
20260901134507 26 0.0 20.9 0.00 0.00 0.00 77 1015.6
20260901133005 26 0.0 19.3 0.00 0.00 0.00 80 1015.7
20260901131624 26 0.0 14.5 0.00 0.00 0.00 81 1015.9
20260901124556 25 0.0 16.1 0.00 0.00 0.00 84 1015.8
20260901123050 24 0.0 12.9 0.00 0.00 0.00 86 1015.7
20260901121546 23 0.0 9.7 0.00 0.00 0.00 86 1015.6
20260901120041 23 0.0 9.7 0.00 0.00 0.00 87 1015.5
20260901114538 23 0.0 12.9 0.00 0.00 0.00 87 1015.4
20260901113034 23 0.0 9.7 0.00 0.00 0.00 87 1015.2
20260901111531 23 0.0 9.7 0.00 0.00 0.00 87 1014.9
20260901110029 23 0.0 9.7 0.00 0.00 0.00 87 1014.9
20260901104530 23 0.0 8.0 0.00 0.00 0.00 87 1014.9
20260901103025 23 0.0 8.0 0.00 0.00 0.00 87 1014.9
20260901101522 23 0.0 12.9 0.00 0.00 0.00 86 1014.8
20260901100026 23 0.0 14.5 0.00 0.00 0.00 86 1014.7
20260901094521 23 0.0 14.5 0.00 0.00 0.00 86 1014.6
20260901093020 23 0.0 17.7 0.00 0.00 0.00 86 1014.5
20260901091519 23 0.0 16.1 0.00 0.00 0.00 85 1014.5
20260901090028 23 0.0 16.1 0.00 0.00 0.00 85 1014.4
20260901084518 24 0.0 16.1 0.00 0.00 0.00 85 1014.3
20260901083030 24 0.0 16.1 0.00 0.00 0.00 84 1014.3
20260901081520 24 0.0 16.1 0.00 0.00 0.00 84 1014.3
20260901080020 25 0.0 19.3 0.00 0.00 0.00 83 1014.3
20260901074528 25 0.0 19.3 0.00 0.00 0.00 82 1014.2
20260901073030 25 0.0 20.9 0.00 0.00 0.00 81 1014.1
20260901071515 25 0.0 20.9 0.00 0.00 0.00 81 1014.2
20260901070022 25 0.0 20.9 0.00 0.00 0.00 81 1014.2
20260901064525 25 0.0 19.3 0.00 0.00 0.00 81 1014.3
20260901063012 25 0.0 19.3 0.00 0.00 0.00 82 1014.4
20260901061508 25 0.0 17.7 0.00 0.00 0.00 84 1014.4
20260901060010 24 0.0 16.1 0.00 0.00 0.00 86 1014.5
20260901054508 24 0.0 16.1 0.00 0.00 0.00 86 1014.4
20260901053009 24 0.0 14.5 0.00 0.00 0.00 86 1014.7
20260901051509 23 0.0 14.5 0.00 0.00 0.00 87 1014.7
20260901050005 23 0.0 12.9 0.00 0.00 0.00 87 1014.6
20260901044502 24 0.0 8.0 0.00 0.00 0.00 86 1014.5
20260901043103 24 0.0 8.0 0.00 0.00 0.00 85 1014.5
20260901041605 25 0.0 9.7 0.00 0.00 0.00 85 1014.5
20260901040109 25 0.0 14.5 0.00 0.00 0.00 85 1014.2
20260901034556 25 0.0 14.5 0.00 0.00 0.00 84 1014.1
20260901033104 25 0.0 14.5 0.00 0.00 0.00 84 1014.1
20260901031609 24 0.0 14.5 0.00 0.00 0.00 85 1014.1
20260901030058 24 0.0 12.9 0.00 0.00 0.00 84 1014.2
20260901024556 25 0.0 16.1 0.00 0.00 0.00 83 1014.5
20260901023054 25 0.0 14.5 0.00 0.00 0.00 82 1014.8
20260901021555 26 0.0 12.9 0.00 0.00 0.00 81 1014.8
20260901020052 26 0.0 8.0 0.00 0.00 0.00 81 1015.1
20260901014551 26 0.0 9.7 0.00 0.00 0.00 81 1014.9
20260901013053 25 0.0 6.4 0.00 0.00 0.00 82 1014.9
20260901011553 25 0.0 6.4 0.00 0.00 0.00 81 1014.7
20260901010050 26 0.0 8.0 0.00 0.00 0.00 79 1014.5
20260901004551 26 0.0 6.4 0.00 0.00 0.00 77 1014.5
20260901003052 26 0.0 9.7 0.00 0.00 0.00 76 1014.4
20260901001554 27 0.0 9.7 0.00 0.00 0.00 73 1014.1
20260901000049 28 0.0 8.0 0.00 0.00 0.00 72 1014.3
20260831234548 29 0.0 16.1 0.00 0.00 0.00 68 1014.1
20260831233048 29 0.0 14.5 0.00 0.00 0.00 68 1014.2